Time,TemperatureF,DewpointF,PressureIn,WindDirection,WindDirectionDegrees,WindSpeedMPH,WindSpeedGustMPH,Humidity,HourlyPrecipIn,Conditions,Clouds,dailyrainin,SoftwareType,DateUTC
2013-02-25 00:01:00,68.7,67.5,29.90,ENE,67,0.0,0.0,96,0.00,,,0.00,meteohub,2013-02-25 05:01:00,
2013-02-25 00:06:00,68.9,67.6,29.91,East,81,1.0,1.0,96,0.00,,,0.00,meteohub,2013-02-25 05:06:00,
2013-02-25 00:11:00,69.3,68.4,29.90,ESE,120,1.0,3.0,97,0.00,,,0.00,meteohub,2013-02-25 05:11:00,
2013-02-25 00:16:00,69.4,68.5,29.91,ESE,107,2.0,3.0,97,0.00,,,0.00,meteohub,2013-02-25 05:16:00,
2013-02-25 00:21:00,69.8,68.9,29.91,East,100,0.0,3.0,97,0.00,,,0.00,meteohub,2013-02-25 05:21:00,
2013-02-25 00:26:00,70.0,69.1,29.91,East,88,2.0,3.0,97,0.00,,,0.00,meteohub,2013-02-25 05:26:00,
2013-02-25 00:31:00,70.0,69.1,29.91,East,95,0.0,3.0,97,0.00,,,0.00,meteohub,2013-02-25 05:31:00,
2013-02-25 00:36:00,70.2,69.3,29.90,ENE,59,0.0,2.0,97,0.00,,,0.00,meteohub,2013-02-25 05:36:00,
2013-02-25 00:41:00,70.2,69.3,29.91,East,95,3.0,4.0,97,0.00,,,0.00,meteohub,2013-02-25 05:41:00,
2013-02-25 00:46:00,70.3,69.4,29.91,East,88,0.0,4.0,97,0.00,,,0.00,meteohub,2013-02-25 05:46:00,
2013-02-25 00:51:00,70.3,69.4,29.91,ESE,117,1.0,4.0,97,0.00,,,0.00,meteohub,2013-02-25 05:51:00,
2013-02-25 00:56:00,70.3,69.4,29.91,East,93,1.0,4.0,97,0.00,,,0.00,meteohub,2013-02-25 05:56:00,
2013-02-25 01:01:00,70.3,69.4,29.92,ESE,111,0.0,4.0,97,0.00,,,0.00,meteohub,2013-02-25 06:01:00,
2013-02-25 01:06:00,70.3,69.4,29.91,ESE,107,1.0,4.0,97,0.00,,,0.00,meteohub,2013-02-25 06:06:00,
2013-02-25 01:11:00,70.3,69.4,29.91,ESE,103,0.0,3.0,97,0.00,,,0.00,meteohub,2013-02-25 06:11:00,
2013-02-25 01:16:00,70.3,69.4,29.91,ESE,103,0.0,3.0,97,0.00,,,0.00,meteohub,2013-02-25 06:16:00,
2013-02-25 01:21:00,70.3,69.4,29.91,ESE,110,0.0,3.0,97,0.00,,,0.00,meteohub,2013-02-25 06:21:00,
2013-02-25 01:26:00,70.3,69.4,29.91,ESE,110,0.0,3.0,97,0.00,,,0.00,meteohub,2013-02-25 06:26:00,
2013-02-25 01:31:00,70.3,69.4,29.90,ESE,103,0.0,3.0,97,0.00,,,0.00,meteohub,2013-02-25 06:31:00,
2013-02-25 01:36:00,70.3,69.4,29.90,ESE,105,0.0,3.0,97,0.00,,,0.00,meteohub,2013-02-25 06:36:00,
2013-02-25 01:41:00,70.3,69.4,29.90,ESE,105,0.0,2.0,97,0.00,,,0.00,meteohub,2013-02-25 06:41:00,
2013-02-25 01:46:00,70.2,69.3,29.90,ESE,105,0.0,2.0,97,0.00,,,0.00,meteohub,2013-02-25 06:46:00,
2013-02-25 01:51:00,70.2,69.3,29.90,ESE,105,0.0,2.0,97,0.00,,,0.00,meteohub,2013-02-25 06:51:00,
2013-02-25 01:56:00,70.0,68.7,29.90,ESE,105,0.0,2.0,96,0.00,,,0.00,meteohub,2013-02-25 06:56:00,
2013-02-25 02:01:00,70.0,69.1,29.90,ESE,105,0.0,2.0,97,0.00,,,0.00,meteohub,2013-02-25 07:01:00,
2013-02-25 02:06:00,70.2,69.3,29.90,East,79,0.0,1.0,97,0.00,,,0.00,meteohub,2013-02-25 07:06:00,
2013-02-25 02:16:00,70.2,69.3,29.90,East,84,0.0,3.0,97,0.00,,,0.00,meteohub,2013-02-25 07:16:00,
2013-02-25 02:21:00,70.0,69.1,29.90,East,90,0.0,3.0,97,0.00,,,0.00,meteohub,2013-02-25 07:21:00,
2013-02-25 02:26:00,70.0,69.1,29.90,East,92,1.0,3.0,97,0.00,,,0.00,meteohub,2013-02-25 07:26:00,
2013-02-25 02:31:00,69.8,68.9,29.89,ESE,107,0.0,3.0,97,0.00,,,0.00,meteohub,2013-02-25 07:31:00,
2013-02-25 02:36:00,69.8,68.5,29.88,East,98,1.0,3.0,96,0.00,,,0.00,meteohub,2013-02-25 07:36:00,
2013-02-25 02:41:00,69.6,68.4,29.88,East,96,0.0,5.0,96,0.00,,,0.00,meteohub,2013-02-25 07:41:00,
2013-02-25 02:46:00,69.6,68.4,29.87,ENE,60,4.0,5.0,96,0.00,,,0.00,meteohub,2013-02-25 07:46:00,
2013-02-25 02:56:00,69.4,68.2,29.87,East,79,2.0,4.0,96,0.00,,,0.00,meteohub,2013-02-25 07:56:00,
2013-02-25 03:01:00,69.4,68.2,29.87,East,86,1.0,4.0,96,0.00,,,0.00,meteohub,2013-02-25 08:01:00,
2013-02-25 03:06:00,69.4,68.2,29.87,ESE,104,1.0,5.0,96,0.00,,,0.00,meteohub,2013-02-25 08:06:00,
2013-02-25 03:16:00,69.6,68.4,29.87,East,91,2.0,7.0,96,0.00,,,0.00,meteohub,2013-02-25 08:16:00,
2013-02-25 03:21:00,69.6,68.4,29.86,East,92,2.0,7.0,96,0.00,,,0.00,meteohub,2013-02-25 08:21:00,
2013-02-25 03:26:00,69.6,68.4,29.86,ESE,104,1.0,7.0,96,0.00,,,0.00,meteohub,2013-02-25 08:26:00,
2013-02-25 03:31:00,69.6,68.4,29.86,East,98,1.0,5.0,96,0.00,,,0.00,meteohub,2013-02-25 08:31:00,
2013-02-25 03:36:00,69.6,68.4,29.86,SE,128,1.0,5.0,96,0.00,,,0.00,meteohub,2013-02-25 08:36:00,
2013-02-25 03:41:00,69.6,68.4,29.86,ESE,103,0.0,5.0,96,0.00,,,0.00,meteohub,2013-02-25 08:41:00,
2013-02-25 03:46:00,69.6,68.4,29.86,East,99,1.0,5.0,96,0.00,,,0.00,meteohub,2013-02-25 08:46:00,
2013-02-25 03:51:00,69.6,68.4,29.86,ESE,117,3.0,7.0,96,0.00,,,0.00,meteohub,2013-02-25 08:51:00,
2013-02-25 03:56:00,69.4,68.2,29.85,East,90,1.0,9.0,96,0.00,,,0.00,meteohub,2013-02-25 08:56:00,
2013-02-25 04:01:00,69.4,68.2,29.85,East,88,3.0,11.0,96,0.00,,,0.00,meteohub,2013-02-25 09:01:00,
2013-02-25 04:06:00,69.4,68.2,29.86,East,96,2.0,11.0,96,0.00,,,0.00,meteohub,2013-02-25 09:06:00,
2013-02-25 04:11:00,69.4,68.2,29.86,ENE,78,2.0,11.0,96,0.00,,,0.00,meteohub,2013-02-25 09:11:00,
2013-02-25 04:16:00,69.4,68.2,29.85,ENE,76,3.0,6.0,96,0.00,,,0.00,meteohub,2013-02-25 09:16:00,
2013-02-25 04:21:00,69.4,68.2,29.85,East,101,5.0,8.0,96,0.00,,,0.00,meteohub,2013-02-25 09:21:00,
2013-02-25 04:26:00,69.4,68.2,29.85,East,93,2.0,8.0,96,0.00,,,0.00,meteohub,2013-02-25 09:26:00,
2013-02-25 04:31:00,69.3,68.0,29.85,East,83,2.0,8.0,96,0.00,,,0.00,meteohub,2013-02-25 09:31:00,
2013-02-25 04:36:00,69.3,68.0,29.85,ESE,107,3.0,7.0,96,0.00,,,0.00,meteohub,2013-02-25 09:36:00,
2013-02-25 04:41:00,69.3,68.0,29.85,ESE,103,1.0,5.0,96,0.00,,,0.00,meteohub,2013-02-25 09:41:00,
2013-02-25 04:46:00,69.3,68.0,29.85,ESE,107,2.0,5.0,96,0.00,,,0.00,meteohub,2013-02-25 09:46:00,
2013-02-25 04:51:00,69.3,68.0,29.85,East,100,0.0,4.0,96,0.00,,,0.00,meteohub,2013-02-25 09:51:00,
2013-02-25 04:56:00,69.1,67.8,29.85,ESE,111,5.0,5.0,96,0.00,,,0.00,meteohub,2013-02-25 09:56:00,
2013-02-25 05:01:00,69.1,67.8,29.85,East,81,1.0,5.0,96,0.00,,,0.00,meteohub,2013-02-25 10:01:00,
2013-02-25 05:06:00,69.1,67.8,29.85,ESE,122,4.0,7.0,96,0.00,,,0.00,meteohub,2013-02-25 10:06:00,
2013-02-25 05:11:00,69.1,67.8,29.85,East,84,0.0,7.0,96,0.00,,,0.00,meteohub,2013-02-25 10:11:00,
2013-02-25 05:16:00,69.1,67.8,29.84,East,88,2.0,7.0,96,0.00,,,0.00,meteohub,2013-02-25 10:16:00,
2013-02-25 05:21:00,69.1,67.8,29.84,East,91,1.0,6.0,96,0.00,,,0.00,meteohub,2013-02-25 10:21:00,
2013-02-25 05:26:00,69.3,68.0,29.83,ESE,111,2.0,8.0,96,0.00,,,0.00,meteohub,2013-02-25 10:26:00,
2013-02-25 05:31:00,69.1,67.8,29.84,ENE,76,0.0,8.0,96,0.00,,,0.00,meteohub,2013-02-25 10:31:00,
2013-02-25 05:36:00,69.3,68.0,29.84,East,95,0.0,6.0,96,0.00,,,0.00,meteohub,2013-02-25 10:36:00,
2013-02-25 05:41:00,69.3,68.0,29.84,East,86,3.0,5.0,96,0.00,,,0.00,meteohub,2013-02-25 10:41:00,
2013-02-25 05:46:00,69.1,67.8,29.84,ESE,102,5.0,5.0,96,0.00,,,0.00,meteohub,2013-02-25 10:46:00,
2013-02-25 05:51:00,69.1,67.8,29.83,East,94,3.0,7.0,96,0.00,,,0.00,meteohub,2013-02-25 10:51:00,
2013-02-25 05:56:00,69.1,67.8,29.84,East,96,1.0,7.0,96,0.00,,,0.00,meteohub,2013-02-25 10:56:00,
2013-02-25 06:01:00,69.1,67.8,29.84,East,94,1.0,7.0,96,0.00,,,0.00,meteohub,2013-02-25 11:01:00,
2013-02-25 06:06:00,69.1,67.8,29.85,ESE,113,0.0,7.0,96,0.00,,,0.00,meteohub,2013-02-25 11:06:00,
2013-02-25 06:11:00,69.1,67.8,29.85,East,92,2.0,6.0,96,0.00,,,0.00,meteohub,2013-02-25 11:11:00,
2013-02-25 06:16:00,69.1,67.8,29.86,East,79,0.0,7.0,96,0.00,,,0.00,meteohub,2013-02-25 11:16:00,
2013-02-25 06:21:00,68.9,67.6,29.86,ESE,111,3.0,7.0,96,0.00,,,0.00,meteohub,2013-02-25 11:21:00,
2013-02-25 06:26:00,68.9,67.6,29.86,ESE,109,1.0,7.0,96,0.00,,,0.00,meteohub,2013-02-25 11:26:00,
2013-02-25 06:31:00,68.9,67.6,29.86,ESE,104,0.0,6.0,96,0.00,,,0.00,meteohub,2013-02-25 11:31:00,
2013-02-25 06:36:00,68.7,67.5,29.87,ESE,107,5.0,7.0,96,0.00,,,0.00,meteohub,2013-02-25 11:36:00,
2013-02-25 06:41:00,68.7,67.5,29.87,ESE,107,2.0,7.0,96,0.00,,,0.00,meteohub,2013-02-25 11:41:00,
2013-02-25 06:46:00,68.7,67.5,29.88,SE,134,2.0,7.0,96,0.00,,,0.00,meteohub,2013-02-25 11:46:00,
2013-02-25 06:51:00,68.5,67.3,29.88,ESE,106,1.0,7.0,96,0.00,,,0.00,meteohub,2013-02-25 11:51:00,
2013-02-25 06:56:00,68.5,67.3,29.88,ESE,122,1.0,5.0,96,0.00,,,0.00,meteohub,2013-02-25 11:56:00,
2013-02-25 07:01:00,68.4,67.1,29.88,ESE,121,3.0,4.0,96,0.00,,,0.00,meteohub,2013-02-25 12:01:00,
2013-02-25 07:06:00,68.4,67.1,29.88,ESE,113,1.0,8.0,96,0.00,,,0.00,meteohub,2013-02-25 12:06:00,
2013-02-25 07:11:00,68.4,67.1,29.87,ESE,105,4.0,8.0,96,0.00,,,0.00,meteohub,2013-02-25 12:11:00,
2013-02-25 07:16:00,68.4,67.1,29.87,East,94,3.0,5.0,96,0.00,,,0.00,meteohub,2013-02-25 12:16:00,
2013-02-25 07:26:00,68.4,67.1,29.87,ESE,109,3.0,8.0,96,0.00,,,0.00,meteohub,2013-02-25 12:26:00,
2013-02-25 07:31:00,68.4,67.1,29.88,East,85,2.0,8.0,96,0.00,,,0.00,meteohub,2013-02-25 12:31:00,
2013-02-25 07:36:00,68.5,67.3,29.88,SE,134,4.0,6.0,96,0.00,,,0.00,meteohub,2013-02-25 12:36:00,
2013-02-25 07:41:00,68.5,67.3,29.88,ESE,119,2.0,6.0,96,0.00,,,0.00,meteohub,2013-02-25 12:41:00,
2013-02-25 07:46:00,68.5,67.3,29.88,East,94,0.0,5.0,96,0.00,,,0.00,meteohub,2013-02-25 12:46:00,
2013-02-25 07:52:00,68.7,67.5,29.88,ESE,117,1.0,5.0,96,0.00,,,0.00,meteohub,2013-02-25 12:52:00,
2013-02-25 07:57:00,68.7,67.5,29.88,SE,136,2.0,5.0,96,0.00,,,0.00,meteohub,2013-02-25 12:57:00,
2013-02-25 08:06:00,69.1,67.8,29.88,SE,134,1.0,6.0,96,0.00,,,0.00,meteohub,2013-02-25 13:06:00,
2013-02-25 08:11:00,69.1,67.8,29.88,SE,134,1.0,7.0,96,0.00,,,0.00,meteohub,2013-02-25 13:11:00,
2013-02-25 08:16:00,69.3,68.0,29.89,SE,131,1.0,8.0,96,0.00,,,0.00,meteohub,2013-02-25 13:16:00,
2013-02-25 08:21:00,69.4,68.0,29.89,East,83,2.0,8.0,95,0.00,,,0.00,meteohub,2013-02-25 13:21:00,
2013-02-25 08:26:00,69.4,68.0,29.89,East,99,0.0,8.0,95,0.00,,,0.00,meteohub,2013-02-25 13:26:00,
2013-02-25 08:31:00,69.6,68.2,29.89,East,89,2.0,5.0,95,0.00,,,0.00,meteohub,2013-02-25 13:31:00,
2013-02-25 08:36:00,70.2,68.7,29.89,East,81,1.0,6.0,95,0.00,,,0.00,meteohub,2013-02-25 13:36:00,
2013-02-25 08:41:00,70.3,68.5,29.89,ESE,112,1.0,6.0,94,0.00,,,0.00,meteohub,2013-02-25 13:41:00,
2013-02-25 08:46:00,70.5,68.7,29.90,East,95,1.0,6.0,94,0.00,,,0.00,meteohub,2013-02-25 13:46:00,
2013-02-25 08:56:00,71.6,69.1,29.89,East,89,2.0,5.0,92,0.00,,,0.00,meteohub,2013-02-25 13:56:00,
2013-02-25 09:01:00,72.1,69.4,29.89,ESE,113,2.0,7.0,91,0.00,,,0.00,meteohub,2013-02-25 14:01:00,
2013-02-25 09:06:00,72.9,69.8,29.89,ESE,107,2.0,7.0,90,0.00,,,0.00,meteohub,2013-02-25 14:06:00,
2013-02-25 09:11:00,73.8,69.6,29.89,ESE,105,0.0,6.0,87,0.00,,,0.00,meteohub,2013-02-25 14:11:00,
2013-02-25 09:16:00,74.5,70.0,29.89,ENE,62,3.0,6.0,86,0.00,,,0.00,meteohub,2013-02-25 14:16:00,
2013-02-25 09:21:00,75.0,70.2,29.89,East,90,2.0,6.0,85,0.00,,,0.00,meteohub,2013-02-25 14:21:00,
2013-02-25 09:26:00,75.4,70.2,29.89,ENE,76,2.0,6.0,84,0.00,,,0.00,meteohub,2013-02-25 14:26:00,
2013-02-25 09:36:00,75.9,70.3,29.89,NE,50,1.0,6.0,83,0.00,,,0.00,meteohub,2013-02-25 14:36:00,
2013-02-25 09:41:00,76.5,70.2,29.88,ESE,106,3.0,7.0,81,0.00,,,0.00,meteohub,2013-02-25 14:41:00,
2013-02-25 09:46:00,76.8,70.5,29.88,ENE,57,4.0,7.0,81,0.00,,,0.00,meteohub,2013-02-25 14:46:00,
2013-02-25 09:51:00,77.2,70.5,29.88,NNE,22,2.0,7.0,80,0.00,,,0.00,meteohub,2013-02-25 14:51:00,
2013-02-25 09:56:00,77.7,70.7,29.88,East,95,2.0,7.0,79,0.00,,,0.00,meteohub,2013-02-25 14:56:00,
2013-02-25 10:01:00,78.3,70.0,29.88,East,86,2.0,5.0,76,0.00,,,0.00,meteohub,2013-02-25 15:01:00,
2013-02-25 10:06:00,78.4,70.7,29.88,East,92,0.0,8.0,77,0.00,,,0.00,meteohub,2013-02-25 15:06:00,
2013-02-25 10:11:00,79.2,70.5,29.88,East,94,1.0,8.0,75,0.00,,,0.00,meteohub,2013-02-25 15:11:00,
2013-02-25 10:16:00,79.7,70.3,29.88,ESE,103,1.0,9.0,73,0.00,,,0.00,meteohub,2013-02-25 15:16:00,
2013-02-25 10:21:00,80.1,70.7,29.88,ESE,102,5.0,9.0,73,0.00,,,0.00,meteohub,2013-02-25 15:21:00,
2013-02-25 10:26:00,80.2,70.9,29.88,SE,139,1.0,9.0,73,0.00,,,0.00,meteohub,2013-02-25 15:26:00,
2013-02-25 10:31:00,80.4,70.5,29.88,ESE,116,5.0,9.0,72,0.00,,,0.00,meteohub,2013-02-25 15:31:00,
2013-02-25 10:41:00,81.0,70.7,29.88,East,96,1.0,7.0,71,0.00,,,0.00,meteohub,2013-02-25 15:41:00,
2013-02-25 10:46:00,81.7,70.5,29.88,SE,138,2.0,7.0,69,0.00,,,0.00,meteohub,2013-02-25 15:46:00,
2013-02-25 10:51:00,81.1,70.0,29.87,SE,139,6.0,9.0,69,0.00,,,0.00,meteohub,2013-02-25 15:51:00,
2013-02-25 10:56:00,80.6,70.0,29.87,SE,130,1.0,9.0,70,0.00,,,0.00,meteohub,2013-02-25 15:56:00,
2013-02-25 11:01:00,80.2,69.6,29.87,ESE,109,2.0,8.0,70,0.00,,,0.00,meteohub,2013-02-25 16:01:00,
2013-02-25 11:06:00,80.6,70.0,29.87,ESE,109,5.0,8.0,70,0.00,,,0.00,meteohub,2013-02-25 16:06:00,
2013-02-25 11:11:00,80.8,69.6,29.87,SE,146,3.0,8.0,69,0.00,,,0.00,meteohub,2013-02-25 16:11:00,
2013-02-25 11:16:00,80.8,69.6,29.87,SE,130,1.0,8.0,69,0.00,,,0.00,meteohub,2013-02-25 16:16:00,
2013-02-25 11:21:00,81.1,70.0,29.87,ESE,106,1.0,8.0,69,0.00,,,0.00,meteohub,2013-02-25 16:21:00,
2013-02-25 11:26:00,81.5,70.0,29.87,South,183,3.0,10.0,68,0.00,,,0.00,meteohub,2013-02-25 16:26:00,
2013-02-25 11:31:00,81.3,69.3,29.87,ESE,108,2.0,10.0,67,0.00,,,0.00,meteohub,2013-02-25 16:31:00,
2013-02-25 11:36:00,81.7,69.6,29.87,East,82,0.0,9.0,67,0.00,,,0.00,meteohub,2013-02-25 16:36:00,
2013-02-25 11:41:00,81.9,68.9,29.87,SSE,164,3.0,9.0,65,0.00,,,0.00,meteohub,2013-02-25 16:41:00,
2013-02-25 11:46:00,82.0,69.6,29.87,ESE,109,5.0,11.0,66,0.00,,,0.00,meteohub,2013-02-25 16:46:00,
2013-02-25 11:51:00,82.2,69.3,29.86,SE,125,6.0,11.0,65,0.00,,,0.00,meteohub,2013-02-25 16:51:00,
2013-02-25 12:01:00,81.1,68.7,29.86,SE,132,3.0,10.0,66,0.00,,,0.00,meteohub,2013-02-25 17:01:00,
2013-02-25 12:06:00,81.0,68.5,29.86,East,92,7.0,10.0,66,0.00,,,0.00,meteohub,2013-02-25 17:06:00,
2013-02-25 12:11:00,80.4,68.5,29.86,ESE,107,5.0,9.0,67,0.00,,,0.00,meteohub,2013-02-25 17:11:00,
2013-02-25 12:16:00,80.4,68.5,29.85,SE,142,5.0,9.0,67,0.00,,,0.00,meteohub,2013-02-25 17:16:00,
2013-02-25 12:21:00,80.2,68.7,29.85,East,95,0.0,9.0,68,0.00,,,0.00,meteohub,2013-02-25 17:21:00,
2013-02-25 12:26:00,80.8,69.3,29.85,South,175,3.0,9.0,68,0.00,,,0.00,meteohub,2013-02-25 17:26:00,
2013-02-25 12:31:00,81.7,69.3,29.85,SSE,159,1.0,9.0,66,0.00,,,0.00,meteohub,2013-02-25 17:31:00,
2013-02-25 12:36:00,81.9,68.0,29.85,ESE,122,4.0,11.0,63,0.00,,,0.00,meteohub,2013-02-25 17:36:00,
2013-02-25 12:41:00,81.3,68.4,29.84,ESE,115,3.0,13.0,65,0.00,,,0.00,meteohub,2013-02-25 17:41:00,
2013-02-25 12:46:00,81.3,68.4,29.84,SE,137,3.0,13.0,65,0.00,,,0.00,meteohub,2013-02-25 17:46:00,
2013-02-25 12:51:00,81.9,68.5,29.84,SSE,157,3.0,13.0,64,0.00,,,0.00,meteohub,2013-02-25 17:51:00,
2013-02-25 12:56:00,81.9,68.0,29.84,SSE,159,4.0,11.0,63,0.00,,,0.00,meteohub,2013-02-25 17:56:00,
2013-02-25 13:01:00,81.3,67.5,29.84,WNW,283,3.0,13.0,63,0.00,,,0.00,meteohub,2013-02-25 18:01:00,
2013-02-25 13:06:00,81.0,67.6,29.84,SE,135,3.0,13.0,64,0.00,,,0.00,meteohub,2013-02-25 18:06:00,
2013-02-25 13:11:00,80.8,67.5,29.83,ESE,112,9.0,13.0,64,0.00,,,0.00,meteohub,2013-02-25 18:11:00,
2013-02-25 13:16:00,80.8,67.5,29.83,ESE,105,7.0,14.0,64,0.00,,,0.00,meteohub,2013-02-25 18:16:00,
2013-02-25 13:21:00,81.1,68.7,29.83,SSE,163,7.0,14.0,66,0.00,,,0.00,meteohub,2013-02-25 18:21:00,
2013-02-25 13:26:00,81.9,69.4,29.83,ESE,122,9.0,14.0,66,0.00,,,0.00,meteohub,2013-02-25 18:26:00,
2013-02-25 13:31:00,81.7,69.3,29.83,SSE,167,4.0,14.0,66,0.00,,,0.00,meteohub,2013-02-25 18:31:00,
2013-02-25 13:36:00,81.7,70.2,29.82,SE,127,6.0,12.0,68,0.00,,,0.00,meteohub,2013-02-25 18:36:00,
2013-02-25 13:41:00,82.0,70.0,29.81,SSE,163,5.0,12.0,67,0.00,,,0.00,meteohub,2013-02-25 18:41:00,
2013-02-25 13:46:00,81.9,69.4,29.81,SE,135,5.0,15.0,66,0.00,,,0.00,meteohub,2013-02-25 18:46:00,
2013-02-25 13:51:00,81.5,69.4,29.81,SSW,198,4.0,15.0,67,0.00,,,0.00,meteohub,2013-02-25 18:51:00,
2013-02-25 13:56:00,81.7,69.6,29.81,West,261,4.0,15.0,67,0.00,,,0.00,meteohub,2013-02-25 18:56:00,
2013-02-25 14:01:00,82.2,69.8,29.81,SE,135,6.0,15.0,66,0.00,,,0.00,meteohub,2013-02-25 19:01:00,
2013-02-25 14:06:00,82.0,70.0,29.81,ESE,115,11.0,16.0,67,0.00,,,0.00,meteohub,2013-02-25 19:06:00,
2013-02-25 14:11:00,81.3,70.5,29.82,SE,138,12.0,16.0,70,0.00,,,0.00,meteohub,2013-02-25 19:11:00,
2013-02-25 14:16:00,81.7,71.4,29.81,ESE,111,1.0,16.0,71,0.00,,,0.00,meteohub,2013-02-25 19:16:00,
2013-02-25 14:21:00,82.6,71.8,29.81,SE,130,7.0,16.0,70,0.00,,,0.00,meteohub,2013-02-25 19:21:00,
2013-02-25 14:26:00,82.8,71.6,29.81,SSW,206,4.0,16.0,69,0.00,,,0.00,meteohub,2013-02-25 19:26:00,
2013-02-25 14:31:00,81.9,71.6,29.81,SE,128,8.0,16.0,71,0.00,,,0.00,meteohub,2013-02-25 19:31:00,
2013-02-25 14:36:00,81.3,71.4,29.81,SE,127,2.0,16.0,72,0.00,,,0.00,meteohub,2013-02-25 19:36:00,
2013-02-25 14:41:00,81.9,72.0,29.81,ESE,122,2.0,14.0,72,0.00,,,0.00,meteohub,2013-02-25 19:41:00,
2013-02-25 14:46:00,82.9,72.1,29.81,South,182,5.0,13.0,70,0.00,,,0.00,meteohub,2013-02-25 19:46:00,
2013-02-25 14:51:00,82.6,71.8,29.81,SE,126,8.0,14.0,70,0.00,,,0.00,meteohub,2013-02-25 19:51:00,
2013-02-25 14:56:00,82.0,71.2,29.80,East,85,6.0,14.0,70,0.00,,,0.00,meteohub,2013-02-25 19:56:00,
2013-02-25 15:01:00,81.9,71.6,29.81,SE,138,5.0,17.0,71,0.00,,,0.00,meteohub,2013-02-25 20:01:00,
2013-02-25 15:06:00,81.9,71.6,29.81,SE,134,10.0,17.0,71,0.00,,,0.00,meteohub,2013-02-25 20:06:00,
2013-02-25 15:11:00,81.3,71.1,29.81,SSE,159,4.0,17.0,71,0.00,,,0.00,meteohub,2013-02-25 20:11:00,
2013-02-25 15:16:00,81.1,70.9,29.81,SE,145,3.0,16.0,71,0.00,,,0.00,meteohub,2013-02-25 20:16:00,
2013-02-25 15:21:00,81.1,70.9,29.81,South,171,2.0,16.0,71,0.00,,,0.00,meteohub,2013-02-25 20:21:00,
2013-02-25 15:26:00,81.1,71.2,29.81,SE,141,8.0,16.0,72,0.00,,,0.00,meteohub,2013-02-25 20:26:00,
2013-02-25 15:31:00,80.8,70.9,29.81,SW,229,9.0,16.0,72,0.00,,,0.00,meteohub,2013-02-25 20:31:00,
2013-02-25 15:36:00,80.4,71.4,29.81,East,91,2.0,15.0,74,0.00,,,0.00,meteohub,2013-02-25 20:36:00,
2013-02-25 15:41:00,79.9,71.6,29.81,SSE,153,9.0,15.0,76,0.00,,,0.00,meteohub,2013-02-25 20:41:00,
2013-02-25 15:46:00,79.3,71.4,29.81,East,100,7.0,16.0,77,0.00,,,0.00,meteohub,2013-02-25 20:46:00,
2013-02-25 15:51:00,79.2,71.8,29.81,SE,134,3.0,17.0,78,0.00,,,0.00,meteohub,2013-02-25 20:51:00,
2013-02-25 15:56:00,79.2,71.2,29.81,ESE,119,5.0,17.0,77,0.00,,,0.00,meteohub,2013-02-25 20:56:00,
2013-02-25 16:01:00,79.0,71.6,29.81,SSW,194,7.0,17.0,78,0.00,,,0.00,meteohub,2013-02-25 21:01:00,
2013-02-25 16:06:00,79.0,70.7,29.81,SE,138,1.0,14.0,76,0.00,,,0.00,meteohub,2013-02-25 21:06:00,
2013-02-25 16:11:00,79.3,71.1,29.80,ESE,113,3.0,14.0,76,0.00,,,0.00,meteohub,2013-02-25 21:11:00,
2013-02-25 16:16:00,79.5,71.2,29.80,SE,132,7.0,14.0,76,0.00,,,0.00,meteohub,2013-02-25 21:16:00,
2013-02-25 16:21:00,80.1,71.4,29.80,SE,144,11.0,14.0,75,0.00,,,0.00,meteohub,2013-02-25 21:21:00,
2013-02-25 16:26:00,79.9,71.6,29.80,SE,131,4.0,18.0,76,0.00,,,0.00,meteohub,2013-02-25 21:26:00,
2013-02-25 16:31:00,79.7,71.4,29.80,ESE,107,5.0,18.0,76,0.00,,,0.00,meteohub,2013-02-25 21:31:00,
2013-02-25 16:36:00,79.5,71.2,29.80,SW,225,4.0,18.0,76,0.00,,,0.00,meteohub,2013-02-25 21:36:00,
2013-02-25 16:41:00,79.3,71.4,29.80,ESE,105,4.0,13.0,77,0.00,,,0.00,meteohub,2013-02-25 21:41:00,
2013-02-25 16:46:00,79.0,71.6,29.79,ESE,107,2.0,13.0,78,0.00,,,0.00,meteohub,2013-02-25 21:46:00,
2013-02-25 16:51:00,79.0,72.0,29.79,SE,142,2.0,13.0,79,0.00,,,0.00,meteohub,2013-02-25 21:51:00,
2013-02-25 16:56:00,78.6,71.6,29.80,SE,132,8.0,12.0,79,0.00,,,0.00,meteohub,2013-02-25 21:56:00,
2013-02-25 17:01:00,78.4,71.8,29.80,ESE,121,5.0,12.0,80,0.00,,,0.00,meteohub,2013-02-25 22:01:00,
2013-02-25 17:06:00,78.1,71.4,29.80,SSE,165,4.0,12.0,80,0.00,,,0.00,meteohub,2013-02-25 22:06:00,
2013-02-25 17:11:00,77.9,71.6,29.79,SSE,154,6.0,12.0,81,0.00,,,0.00,meteohub,2013-02-25 22:11:00,
2013-02-25 17:16:00,77.5,71.2,29.79,ESE,109,1.0,14.0,81,0.00,,,0.00,meteohub,2013-02-25 22:16:00,
2013-02-25 17:21:00,77.5,71.6,29.79,SE,138,2.0,14.0,82,0.00,,,0.00,meteohub,2013-02-25 22:21:00,
2013-02-25 17:26:00,77.5,71.6,29.79,SE,128,6.0,14.0,82,0.00,,,0.00,meteohub,2013-02-25 22:26:00,
2013-02-25 17:31:00,77.5,71.6,29.79,SE,141,1.0,13.0,82,0.00,,,0.00,meteohub,2013-02-25 22:31:00,
2013-02-25 17:36:00,77.7,71.8,29.79,SE,130,8.0,13.0,82,0.00,,,0.00,meteohub,2013-02-25 22:36:00,
2013-02-25 17:41:00,77.7,71.8,29.79,ESE,113,2.0,13.0,82,0.00,,,0.00,meteohub,2013-02-25 22:41:00,
2013-02-25 17:46:00,77.7,71.8,29.79,SSE,150,1.0,12.0,82,0.00,,,0.00,meteohub,2013-02-25 22:46:00,
2013-02-25 17:51:00,77.5,71.6,29.79,SSE,157,3.0,12.0,82,0.00,,,0.00,meteohub,2013-02-25 22:51:00,
2013-02-25 17:56:00,77.4,71.4,29.79,SSE,151,4.0,11.0,82,0.00,,,0.00,meteohub,2013-02-25 22:56:00,
2013-02-25 18:01:00,77.2,71.6,29.79,SE,126,1.0,12.0,83,0.00,,,0.00,meteohub,2013-02-25 23:01:00,
2013-02-25 18:06:00,77.2,71.6,29.79,ESE,121,3.0,12.0,83,0.00,,,0.00,meteohub,2013-02-25 23:06:00,
2013-02-25 18:11:00,76.8,71.2,29.80,SE,124,5.0,12.0,83,0.00,,,0.00,meteohub,2013-02-25 23:11:00,
2013-02-25 18:16:00,76.6,71.4,29.80,ESE,123,4.0,13.0,84,0.00,,,0.00,meteohub,2013-02-25 23:16:00,
2013-02-25 18:21:00,76.6,71.4,29.80,South,177,6.0,13.0,84,0.00,,,0.00,meteohub,2013-02-25 23:21:00,
2013-02-25 18:26:00,76.5,71.6,29.80,ESE,117,4.0,13.0,85,0.00,,,0.00,meteohub,2013-02-25 23:26:00,
2013-02-25 18:31:00,76.5,71.6,29.80,SSE,159,4.0,13.0,85,0.00,,,0.00,meteohub,2013-02-25 23:31:00,
2013-02-25 18:36:00,76.3,71.4,29.80,SE,140,5.0,13.0,85,0.00,,,0.00,meteohub,2013-02-25 23:36:00,
2013-02-25 18:41:00,76.3,71.4,29.80,SE,137,5.0,10.0,85,0.00,,,0.00,meteohub,2013-02-25 23:41:00,
2013-02-25 18:46:00,75.9,71.1,29.80,ESE,115,4.0,10.0,85,0.00,,,0.00,meteohub,2013-02-25 23:46:00,
2013-02-25 18:51:00,75.9,71.4,29.80,SSE,167,12.0,12.0,86,0.00,,,0.00,meteohub,2013-02-25 23:51:00,
2013-02-25 18:56:00,75.7,71.2,29.79,SE,130,6.0,12.0,86,0.00,,,0.00,meteohub,2013-02-25 23:56:00,
2013-02-25 19:01:00,75.7,71.2,29.79,ESE,112,7.0,12.0,86,0.00,,,0.00,meteohub,2013-02-26 00:01:00,
2013-02-25 19:06:00,75.7,71.2,29.79,ESE,113,3.0,12.0,86,0.00,,,0.00,meteohub,2013-02-26 00:06:00,
2013-02-25 19:11:00,75.6,71.1,29.79,SSE,154,4.0,11.0,86,0.00,,,0.00,meteohub,2013-02-26 00:11:00,
2013-02-25 19:16:00,75.6,71.1,29.79,ESE,107,2.0,11.0,86,0.00,,,0.00,meteohub,2013-02-26 00:16:00,
2013-02-25 19:21:00,75.6,71.1,29.80,SE,136,5.0,11.0,86,0.00,,,0.00,meteohub,2013-02-26 00:21:00,
2013-02-25 19:26:00,75.6,71.1,29.80,ESE,105,4.0,11.0,86,0.00,,,0.00,meteohub,2013-02-26 00:26:00,
2013-02-25 19:31:00,75.6,71.1,29.80,SE,138,3.0,11.0,86,0.00,,,0.00,meteohub,2013-02-26 00:31:00,
2013-02-25 19:36:00,75.6,71.1,29.80,SE,133,6.0,10.0,86,0.00,,,0.00,meteohub,2013-02-26 00:36:00,
2013-02-25 19:41:00,75.6,71.1,29.81,SSE,149,2.0,9.0,86,0.00,,,0.00,meteohub,2013-02-26 00:41:00,
2013-02-25 19:46:00,75.6,71.1,29.81,ESE,122,4.0,9.0,86,0.00,,,0.00,meteohub,2013-02-26 00:46:00,
2013-02-25 19:51:00,75.6,71.1,29.81,ESE,107,2.0,9.0,86,0.00,,,0.00,meteohub,2013-02-26 00:51:00,
2013-02-25 19:56:00,75.4,70.9,29.81,SE,136,6.0,9.0,86,0.00,,,0.00,meteohub,2013-02-26 00:56:00,
2013-02-25 20:01:00,75.4,70.9,29.81,SSE,153,6.0,9.0,86,0.00,,,0.00,meteohub,2013-02-26 01:01:00,
2013-02-25 20:06:00,75.4,70.5,29.81,ESE,107,2.0,9.0,85,0.00,,,0.00,meteohub,2013-02-26 01:06:00,
2013-02-25 20:11:00,75.4,70.5,29.81,East,92,2.0,9.0,85,0.00,,,0.00,meteohub,2013-02-26 01:11:00,
2013-02-25 20:16:00,75.4,70.2,29.81,SE,146,3.0,8.0,84,0.00,,,0.00,meteohub,2013-02-26 01:16:00,
2013-02-25 20:21:00,75.4,70.2,29.80,SSE,163,3.0,9.0,84,0.00,,,0.00,meteohub,2013-02-26 01:21:00,
2013-02-25 20:26:00,75.4,70.2,29.80,ESE,121,3.0,9.0,84,0.00,,,0.00,meteohub,2013-02-26 01:26:00,
2013-02-25 20:31:00,75.4,70.2,29.80,SE,126,4.0,9.0,84,0.00,,,0.00,meteohub,2013-02-26 01:31:00,
2013-02-25 20:36:00,75.2,70.0,29.80,SE,128,0.0,9.0,84,0.00,,,0.00,meteohub,2013-02-26 01:36:00,
2013-02-25 20:41:00,75.0,70.2,29.80,ESE,111,0.0,8.0,85,0.00,,,0.00,meteohub,2013-02-26 01:41:00,
2013-02-25 20:46:00,74.8,70.3,29.80,East,90,1.0,7.0,86,0.00,,,0.00,meteohub,2013-02-26 01:46:00,
2013-02-25 20:51:00,74.8,70.3,29.80,SSE,162,1.0,9.0,86,0.00,,,0.00,meteohub,2013-02-26 01:51:00,
2013-02-25 20:56:00,74.7,70.2,29.80,SE,133,1.0,9.0,86,0.00,,,0.00,meteohub,2013-02-26 01:56:00,
2013-02-25 21:01:00,74.5,70.0,29.80,ESE,109,1.0,9.0,86,0.00,,,0.00,meteohub,2013-02-26 02:01:00,
2013-02-25 21:06:00,74.3,70.2,29.80,SE,129,2.0,6.0,87,0.00,,,0.00,meteohub,2013-02-26 02:06:00,
2013-02-25 21:11:00,74.1,70.0,29.79,SE,136,5.0,6.0,87,0.00,,,0.00,meteohub,2013-02-26 02:11:00,
2013-02-25 21:16:00,74.1,70.0,29.80,SSE,166,2.0,7.0,87,0.00,,,0.00,meteohub,2013-02-26 02:16:00,
2013-02-25 21:21:00,74.1,70.0,29.80,SE,127,1.0,7.0,87,0.00,,,0.00,meteohub,2013-02-26 02:21:00,
2013-02-25 21:26:00,73.9,69.8,29.80,ENE,75,2.0,7.0,87,0.00,,,0.00,meteohub,2013-02-26 02:26:00,
2013-02-25 21:31:00,74.1,70.0,29.80,ESE,105,1.0,7.0,87,0.00,,,0.00,meteohub,2013-02-26 02:31:00,
2013-02-25 21:36:00,74.1,70.0,29.79,SE,135,2.0,7.0,87,0.00,,,0.00,meteohub,2013-02-26 02:36:00,
2013-02-25 21:41:00,74.1,70.0,29.79,ESE,121,3.0,8.0,87,0.00,,,0.00,meteohub,2013-02-26 02:41:00,
2013-02-25 21:46:00,74.1,70.0,29.79,ESE,109,2.0,8.0,87,0.00,,,0.00,meteohub,2013-02-26 02:46:00,
2013-02-25 21:51:00,73.9,69.8,29.79,SE,128,2.0,8.0,87,0.00,,,0.00,meteohub,2013-02-26 02:51:00,
2013-02-25 21:56:00,73.9,69.8,29.79,SE,127,2.0,8.0,87,0.00,,,0.00,meteohub,2013-02-26 02:56:00,
2013-02-25 22:01:00,73.9,69.8,29.78,ESE,123,2.0,8.0,87,0.00,,,0.00,meteohub,2013-02-26 03:01:00,
2013-02-25 22:06:00,73.9,69.8,29.79,SE,137,0.0,7.0,87,0.00,,,0.00,meteohub,2013-02-26 03:06:00,
2013-02-25 22:11:00,73.9,69.8,29.79,ESE,109,2.0,7.0,87,0.00,,,0.00,meteohub,2013-02-26 03:11:00,
2013-02-25 22:16:00,73.9,69.8,29.80,ESE,123,2.0,7.0,87,0.00,,,0.00,meteohub,2013-02-26 03:16:00,
2013-02-25 22:21:00,73.9,69.8,29.80,ESE,117,1.0,7.0,87,0.00,,,0.00,meteohub,2013-02-26 03:21:00,
2013-02-25 22:26:00,73.9,69.8,29.80,SE,129,3.0,7.0,87,0.00,,,0.00,meteohub,2013-02-26 03:26:00,
2013-02-25 22:31:00,73.8,69.6,29.80,SE,132,3.0,7.0,87,0.00,,,0.00,meteohub,2013-02-26 03:31:00,
2013-02-25 22:36:00,73.8,69.6,29.80,ESE,113,0.0,7.0,87,0.00,,,0.00,meteohub,2013-02-26 03:36:00,
2013-02-25 22:41:00,73.8,69.6,29.80,SE,131,3.0,7.0,87,0.00,,,0.00,meteohub,2013-02-26 03:41:00,
2013-02-25 22:46:00,73.8,69.6,29.80,SE,138,1.0,7.0,87,0.00,,,0.00,meteohub,2013-02-26 03:46:00,
2013-02-25 22:51:00,73.6,69.4,29.80,SE,146,3.0,8.0,87,0.00,,,0.00,meteohub,2013-02-26 03:51:00,
2013-02-25 22:56:00,73.6,69.4,29.80,SE,133,0.0,8.0,87,0.00,,,0.00,meteohub,2013-02-26 03:56:00,
2013-02-25 23:01:00,73.6,69.4,29.80,SE,133,0.0,8.0,87,0.00,,,0.00,meteohub,2013-02-26 04:01:00,
2013-02-25 23:06:00,73.4,69.3,29.80,SE,140,2.0,5.0,87,0.00,,,0.00,meteohub,2013-02-26 04:06:00,
2013-02-25 23:11:00,73.2,69.4,29.80,SE,127,2.0,6.0,88,0.00,,,0.00,meteohub,2013-02-26 04:11:00,
2013-02-25 23:16:00,73.2,69.4,29.80,SSE,149,1.0,6.0,88,0.00,,,0.00,meteohub,2013-02-26 04:16:00,
2013-02-25 23:21:00,73.0,69.3,29.80,SE,127,2.0,6.0,88,0.00,,,0.00,meteohub,2013-02-26 04:21:00,
2013-02-25 23:26:00,73.0,69.3,29.80,ESE,111,0.0,5.0,88,0.00,,,0.00,meteohub,2013-02-26 04:26:00,
2013-02-25 23:31:00,73.0,69.3,29.80,ESE,105,1.0,4.0,88,0.00,,,0.00,meteohub,2013-02-26 04:31:00,
2013-02-25 23:36:00,72.9,69.1,29.80,ESE,104,0.0,4.0,88,0.00,,,0.00,meteohub,2013-02-26 04:36:00,
2013-02-25 23:41:00,72.9,69.1,29.80,ESE,102,1.0,3.0,88,0.00,,,0.00,meteohub,2013-02-26 04:41:00,
2013-02-25 23:46:00,72.7,68.9,29.80,ESE,103,2.0,5.0,88,0.00,,,0.00,meteohub,2013-02-26 04:46:00,
2013-02-25 23:51:00,72.9,69.1,29.79,East,98,1.0,5.0,88,0.00,,,0.00,meteohub,2013-02-26 04:51:00,
2013-02-25 23:56:00,72.9,69.1,29.79,ESE,102,1.0,5.0,88,0.00,,,0.00,meteohub,2013-02-26 04:56:00,